PCSAT

Satellite information

Favourite Embed

Satellite Type and Status

PAYLOADIN ORBIT

Key statistics

Satellite PCSAT at a glance.

Uptime

8841

Days in orbit

Revolutions

≈ 14.3

Per day

Orbit

LEO

Low Earth Orbit

Inclination

67.1

Latest

Satellite identification and parameters

Extended collection of information and parameters for PCSAT.

Object identification

Identified? True

Debris? False

Object name: PCSAT

International designator: 2001-043C

Object number (NORAD): 26931

Object ID (CCSDS): 26931

Country: UNITED STATES OF AMERICA (US)

Current information (Y/N): Y

RCS size: MEDIUM

Orbital parameters

Period: 100.569 minutes

Inclination: 67.0515 deg

SMA: 7163.676 km

Apoapsis: 790.862 km

Periapsis: 780.219 km

RAAN: 7.5718 deg

Eccentricy: 0.00074286

Argument of periapsis: 270.0561 deg

Mean anomaly: 89.969 deg

Mean motion: 14.31854511 rev/day

Mean motion (dot): 0.00000317 rev/day2

B* drag term: 0.0001494419 1/REarth

Two-line elements (TLE)

Creation date: Dec. 12, 2025, 10:14 a.m.

Reference frame: TEME

Reference center: EARTH

Epoch: Dec. 12, 2025, 7:36 a.m. UTC

TLE line 0: 0 PCSAT

TLE line 1: 1 26931U 01043C 25346.31709930 .00000317 00000-0 14944-3 0 9997

TLE line 2: 2 26931 67.0515 7.5718 0007429 270.0561 89.9690 14.31854511263698

Live tracking on map

Real-time ground track for satellite PCSAT.

In-orbit conjunctions

There are no conjunctions computed for PCSAT, at the moment. Check back to stay up to date, as we update our databases every day.

Go to all conjunctions

Associated space launch

Research (Atmospheric density) satellite built by Naval Research Laboratory (NRL) for NASA, USA.

PCSAT was lifted into orbit during the mission ‘Athena I | Starshine-OSCAR-43’, on board a Athena I space rocket.

The launch took place on Sept. 30, 2001, 2:40 a.m. from Launch Pad 1.

For more information about the launch, click the button.

Launch to space Athena I | Starshine-OSCAR-43
Athena I | Starshine-OSCAR-43

Agency: N/A

Status: Launch Successful

Launch date: Sept. 30, 2001, 2:40 a.m. UTC

Rocket: Athena I

Launch pad: Launch Pad 1

Location: Pacific Spaceport Complex, Alaska, USA

...

Latest news about this satellite

There are no fresh news available about this satellite. Check back as we update our databases every day.


Newsletter sign-up

Weekly statistics, charts and insights to help you stay on top of the space industry.